GEFSNE_prec_meanprecacc_174.txt.gz
Total_Precipitation_Accumulation
1.02 1.01 0.99 0.93 0.90 0.93 1.03 1.19 1.41 1.35 1.06 0.85 0.81 0.79 0.82 0.83 0.87 0.81 0.71 0.86 0.92 0.92 0.96 1.00 0.97 0.95 0.98 1.10 1.30 1.50 1.63 1.67 1.70 1.80 1.88 1.89 1.97 2.14
0.94 0.95 0.92 0.90 0.91 0.94 1.00 1.09 1.21 1.34 1.21 0.90 0.76 0.72 0.76 0.78 0.85 0.76 0.70 0.85 0.85 0.85 0.86 0.86 0.88 0.92 0.96 1.03 1.14 1.28 1.48 1.60 1.61 1.65 1.75 1.82 1.91 2.03
0.89 0.87 0.87 0.86 0.88 0.89 0.94 1.00 1.05 1.13 1.14 0.90 0.75 0.72 0.75 0.74 0.77 0.74 0.70 0.67 0.66 0.74 0.75 0.75 0.77 0.83 0.93 0.99 1.05 1.14 1.30 1.42 1.53 1.59 1.68 1.78 1.85 1.88
0.86 0.89 0.90 0.91 0.96 0.98 1.01 1.01 1.00 1.01 1.04 0.96 0.79 0.70 0.65 0.62 0.62 0.64 0.65 0.64 0.59 0.69 0.71 0.70 0.73 0.77 0.86 0.90 0.94 1.01 1.10 1.18 1.29 1.39 1.44 1.53 1.62 1.73
0.80 0.86 0.91 0.96 1.02 1.03 1.02 1.00 0.97 0.93 0.94 0.95 0.84 0.70 0.64 0.60 0.62 0.63 0.63 0.62 0.58 0.63 0.67 0.67 0.70 0.73 0.77 0.85 0.90 0.91 0.93 1.00 1.07 1.16 1.24 1.31 1.39 1.49
0.83 0.86 0.88 0.90 0.91 0.91 0.89 0.87 0.88 0.89 0.89 0.92 0.88 0.76 0.67 0.63 0.67 0.73 0.71 0.62 0.58 0.53 0.57 0.57 0.59 0.61 0.64 0.70 0.77 0.80 0.82 0.90 0.99 1.08 1.20 1.24 1.27 1.38
0.89 0.88 0.85 0.83 0.78 0.77 0.77 0.76 0.76 0.82 0.90 0.95 0.90 0.80 0.69 0.66 0.66 0.65 0.70 0.67 0.62 0.55 0.52 0.49 0.49 0.48 0.49 0.55 0.64 0.76 0.86 0.99 1.13 1.22 1.34 1.44 1.51 1.56
0.80 0.77 0.75 0.75 0.73 0.76 0.76 0.75 0.80 0.90 1.00 0.99 0.88 0.73 0.58 0.53 0.58 0.68 0.79 0.84 0.75 0.54 0.53 0.54 0.53 0.54 0.50 0.53 0.67 0.77 0.89 1.03 1.19 1.28 1.36 1.43 1.51 1.62
0.72 0.66 0.63 0.59 0.60 0.57 0.64 0.71 0.73 0.78 0.83 0.82 0.77 0.63 0.57 0.56 0.72 0.88 0.87 0.83 0.67 0.50 0.53 0.59 0.56 0.59 0.58 0.63 0.74 0.78 0.90 1.02 1.16 1.25 1.34 1.40 1.45 1.55
0.57 0.53 0.50 0.49 0.50 0.53 0.59 0.66 0.59 0.56 0.56 0.54 0.55 0.59 0.61 0.60 0.70 0.84 0.84 0.81 0.68 0.58 0.58 0.67 0.59 0.60 0.59 0.64 0.75 0.76 0.82 0.95 1.10 1.22 1.32 1.36 1.40 1.49
0.45 0.47 0.48 0.45 0.51 0.65 0.67 0.65 0.53 0.44 0.47 0.53 0.58 0.58 0.59 0.58 0.61 0.81 0.97 1.03 0.87 0.64 0.57 0.60 0.54 0.56 0.61 0.66 0.74 0.81 0.82 0.90 1.04 1.16 1.22 1.29 1.38 1.45
0.42 0.46 0.50 0.49 0.56 0.68 0.62 0.59 0.52 0.44 0.45 0.43 0.42 0.42 0.41 0.45 0.55 0.69 1.04 1.34 1.07 0.77 0.52 0.64 0.66 0.73 0.92 0.70 0.69 0.76 0.80 0.90 1.01 1.06 1.10 1.19 1.27 1.27
0.43 0.41 0.43 0.59 0.67 0.65 0.57 0.47 0.50 0.55 0.48 0.38 0.36 0.36 0.36 0.38 0.41 0.45 0.69 1.26 1.47 1.00 0.52 0.95 1.10 0.83 1.00 0.79 0.68 0.76 0.87 1.03 1.11 1.12 1.12 1.14 1.18 1.24
0.40 0.36 0.43 0.60 0.60 0.54 0.47 0.50 0.59 0.55 0.43 0.42 0.41 0.40 0.38 0.36 0.36 0.38 0.45 0.62 0.93 1.03 0.73 1.12 1.55 1.15 1.22 1.02 0.81 0.84 0.91 1.13 1.39 1.46 1.40 1.35 1.27 1.25
0.48 0.54 0.58 0.54 0.47 0.44 0.45 0.49 0.48 0.45 0.49 0.57 0.52 0.43 0.38 0.37 0.39 0.43 0.45 0.50 0.58 0.63 0.68 0.84 1.22 1.28 1.42 1.39 1.10 0.95 1.07 1.21 1.53 1.81 1.72 1.50 1.30 1.22
0.59 0.60 0.54 0.46 0.41 0.41 0.44 0.44 0.42 0.43 0.53 0.61 0.56 0.45 0.40 0.43 0.48 0.56 0.66 0.68 0.75 0.68 0.67 0.74 0.91 1.24 1.35 1.15 1.23 1.17 1.22 1.56 1.77 1.96 1.84 1.58 1.35 1.18
0.64 0.50 0.41 0.39 0.39 0.37 0.36 0.37 0.39 0.43 0.48 0.50 0.54 0.53 0.48 0.47 0.49 0.60 0.80 0.91 0.94 0.81 0.73 0.68 0.69 0.82 1.01 1.11 1.18 1.12 1.25 1.49 1.72 1.88 1.68 1.52 1.46 1.33
0.55 0.45 0.42 0.39 0.38 0.35 0.34 0.35 0.36 0.40 0.47 0.55 0.57 0.57 0.59 0.58 0.58 0.61 0.79 0.97 0.98 0.86 0.80 0.71 0.70 0.76 0.78 0.83 1.06 1.27 1.32 1.50 1.62 1.56 1.26 1.27 1.39 1.29
0.44 0.44 0.44 0.44 0.42 0.40 0.41 0.42 0.41 0.39 0.49 0.62 0.68 0.68 0.69 0.66 0.67 0.73 0.81 0.88 0.86 0.77 0.66 0.60 0.72 1.00 1.01 0.76 0.69 1.02 1.38 1.47 1.34 1.25 1.09 1.10 1.33 1.28
0.36 0.40 0.42 0.43 0.45 0.48 0.50 0.53 0.53 0.51 0.55 0.64 0.69 0.72 0.79 0.82 0.80 0.79 0.83 0.87 0.82 0.64 0.49 0.40 0.53 0.93 1.32 1.18 0.95 0.92 1.06 1.26 1.32 1.32 1.12 0.98 1.07 1.08
0.34 0.36 0.37 0.41 0.47 0.52 0.54 0.57 0.61 0.65 0.69 0.78 0.79 0.80 0.86 0.94 0.88 0.80 0.78 0.71 0.64 0.56 0.48 0.38 0.39 0.59 0.89 0.98 0.85 0.73 0.86 0.98 1.15 1.46 1.40 1.22 1.03 0.90
0.35 0.36 0.36 0.39 0.46 0.51 0.54 0.58 0.64 0.66 0.72 0.80 0.83 0.85 0.90 0.97 0.94 0.79 0.68 0.64 0.58 0.54 0.49 0.39 0.34 0.42 0.62 0.85 0.76 0.60 0.64 0.68 0.70 0.75 0.99 1.32 1.67 1.74
0.38 0.39 0.38 0.42 0.47 0.53 0.56 0.57 0.63 0.67 0.74 0.85 0.89 0.86 0.86 0.82 0.71 0.68 0.64 0.64 0.65 0.59 0.53 0.48 0.42 0.44 0.51 0.59 0.64 0.56 0.51 0.52 0.51 0.57 0.76 0.82 0.95 1.21

GEFSNE_prec_meanprecacc_180.txt.gz
Total_Precipitation_Accumulation
1.03 1.02 0.99 0.94 0.91 0.94 1.04 1.21 1.43 1.36 1.07 0.86 0.82 0.81 0.84 0.85 0.90 0.83 0.73 0.88 0.95 0.94 0.98 1.02 0.99 0.97 1.00 1.11 1.32 1.53 1.66 1.69 1.72 1.82 1.90 1.91 2.00 2.17
0.95 0.96 0.93 0.90 0.91 0.94 1.01 1.09 1.23 1.36 1.23 0.90 0.77 0.73 0.76 0.79 0.87 0.78 0.72 0.88 0.88 0.87 0.88 0.88 0.90 0.93 0.98 1.05 1.15 1.30 1.50 1.62 1.64 1.67 1.77 1.85 1.93 2.05
0.89 0.88 0.87 0.86 0.88 0.90 0.95 1.00 1.06 1.14 1.16 0.91 0.76 0.73 0.75 0.75 0.78 0.76 0.72 0.70 0.68 0.77 0.77 0.77 0.78 0.84 0.94 1.01 1.06 1.15 1.32 1.44 1.56 1.62 1.71 1.81 1.88 1.91
0.86 0.89 0.90 0.91 0.96 0.99 1.01 1.02 1.01 1.01 1.05 0.97 0.79 0.70 0.66 0.63 0.63 0.66 0.67 0.66 0.61 0.71 0.73 0.72 0.75 0.79 0.87 0.92 0.95 1.03 1.12 1.20 1.32 1.41 1.47 1.55 1.65 1.75
0.80 0.86 0.91 0.96 1.02 1.03 1.02 1.01 0.97 0.94 0.95 0.96 0.84 0.70 0.64 0.61 0.62 0.63 0.64 0.63 0.59 0.65 0.69 0.68 0.72 0.75 0.79 0.86 0.91 0.93 0.95 1.01 1.08 1.18 1.26 1.33 1.41 1.52
0.83 0.86 0.89 0.90 0.91 0.91 0.90 0.88 0.89 0.90 0.90 0.93 0.89 0.77 0.68 0.63 0.67 0.74 0.72 0.63 0.59 0.54 0.58 0.58 0.60 0.62 0.65 0.70 0.77 0.81 0.83 0.90 1.00 1.09 1.21 1.26 1.29 1.40
0.89 0.89 0.85 0.83 0.78 0.77 0.77 0.77 0.77 0.83 0.91 0.96 0.91 0.81 0.71 0.67 0.67 0.66 0.71 0.68 0.63 0.56 0.53 0.50 0.50 0.49 0.50 0.56 0.65 0.77 0.87 0.99 1.13 1.23 1.35 1.45 1.52 1.58
0.80 0.77 0.75 0.75 0.73 0.76 0.77 0.76 0.81 0.91 1.01 1.00 0.89 0.74 0.59 0.54 0.59 0.70 0.80 0.85 0.76 0.55 0.54 0.55 0.54 0.55 0.51 0.54 0.68 0.78 0.90 1.04 1.20 1.29 1.37 1.44 1.52 1.62
0.72 0.67 0.63 0.59 0.60 0.57 0.64 0.72 0.74 0.79 0.84 0.83 0.78 0.64 0.58 0.57 0.73 0.89 0.88 0.84 0.69 0.51 0.54 0.61 0.57 0.61 0.59 0.64 0.76 0.80 0.91 1.03 1.17 1.26 1.35 1.40 1.46 1.56
0.57 0.54 0.50 0.49 0.50 0.53 0.59 0.67 0.60 0.56 0.57 0.55 0.56 0.60 0.61 0.61 0.71 0.86 0.87 0.83 0.70 0.60 0.59 0.69 0.61 0.62 0.61 0.66 0.77 0.77 0.83 0.96 1.10 1.23 1.33 1.36 1.41 1.50
0.45 0.47 0.49 0.45 0.52 0.66 0.68 0.66 0.54 0.45 0.47 0.54 0.59 0.59 0.60 0.59 0.62 0.83 0.99 1.05 0.89 0.66 0.58 0.61 0.55 0.57 0.62 0.67 0.75 0.82 0.83 0.91 1.05 1.16 1.22 1.29 1.39 1.46
0.43 0.46 0.51 0.49 0.57 0.69 0.63 0.60 0.53 0.45 0.45 0.44 0.43 0.43 0.42 0.46 0.56 0.70 1.05 1.36 1.08 0.78 0.53 0.65 0.67 0.73 0.92 0.70 0.70 0.76 0.80 0.90 1.01 1.07 1.10 1.19 1.27 1.27
0.43 0.41 0.44 0.60 0.67 0.66 0.58 0.48 0.51 0.57 0.49 0.40 0.38 0.37 0.37 0.39 0.42 0.47 0.70 1.27 1.48 1.01 0.52 0.95 1.11 0.83 1.00 0.79 0.69 0.76 0.87 1.03 1.11 1.12 1.12 1.14 1.18 1.24
0.41 0.37 0.43 0.61 0.61 0.54 0.48 0.51 0.60 0.56 0.44 0.43 0.42 0.42 0.39 0.37 0.38 0.40 0.47 0.64 0.94 1.04 0.73 1.12 1.56 1.16 1.23 1.03 0.81 0.84 0.91 1.13 1.39 1.46 1.40 1.36 1.27 1.26
0.49 0.56 0.59 0.55 0.48 0.45 0.46 0.50 0.50 0.46 0.50 0.58 0.53 0.44 0.40 0.39 0.41 0.45 0.47 0.51 0.59 0.63 0.69 0.85 1.23 1.28 1.43 1.40 1.11 0.95 1.07 1.21 1.53 1.81 1.73 1.51 1.30 1.22
0.59 0.62 0.56 0.47 0.42 0.42 0.45 0.45 0.43 0.44 0.54 0.62 0.57 0.47 0.41 0.45 0.50 0.58 0.68 0.69 0.76 0.68 0.67 0.74 0.92 1.24 1.36 1.16 1.24 1.18 1.22 1.57 1.77 1.97 1.85 1.59 1.35 1.19
0.66 0.52 0.44 0.41 0.41 0.39 0.38 0.38 0.41 0.45 0.50 0.52 0.56 0.55 0.50 0.49 0.51 0.61 0.81 0.92 0.96 0.82 0.74 0.68 0.70 0.82 1.01 1.12 1.19 1.13 1.26 1.50 1.73 1.89 1.69 1.54 1.47 1.34
0.58 0.48 0.45 0.42 0.40 0.37 0.35 0.37 0.38 0.42 0.49 0.58 0.59 0.59 0.61 0.60 0.60 0.62 0.80 0.97 0.99 0.87 0.80 0.72 0.71 0.77 0.79 0.84 1.07 1.27 1.33 1.51 1.62 1.57 1.28 1.28 1.39 1.29
0.47 0.46 0.46 0.46 0.44 0.41 0.42 0.43 0.43 0.41 0.51 0.64 0.70 0.70 0.71 0.67 0.69 0.74 0.82 0.89 0.86 0.77 0.67 0.62 0.73 1.01 1.03 0.77 0.69 1.03 1.39 1.47 1.35 1.26 1.10 1.11 1.34 1.28
0.38 0.42 0.44 0.45 0.47 0.50 0.52 0.55 0.55 0.54 0.58 0.66 0.71 0.74 0.80 0.84 0.81 0.80 0.84 0.88 0.83 0.65 0.49 0.41 0.54 0.94 1.34 1.19 0.96 0.93 1.07 1.27 1.33 1.33 1.13 0.99 1.08 1.09
0.36 0.38 0.39 0.43 0.49 0.54 0.56 0.60 0.64 0.68 0.71 0.81 0.81 0.82 0.87 0.95 0.89 0.81 0.79 0.72 0.66 0.58 0.50 0.39 0.39 0.60 0.91 1.01 0.87 0.75 0.87 0.99 1.15 1.48 1.41 1.23 1.04 0.91
0.37 0.38 0.38 0.41 0.48 0.53 0.57 0.61 0.67 0.69 0.75 0.82 0.85 0.87 0.91 0.98 0.95 0.80 0.69 0.65 0.59 0.55 0.50 0.40 0.35 0.44 0.64 0.87 0.78 0.62 0.65 0.69 0.71 0.76 1.01 1.35 1.69 1.76
0.41 0.41 0.41 0.44 0.50 0.55 0.59 0.61 0.66 0.69 0.76 0.87 0.91 0.89 0.88 0.83 0.72 0.69 0.65 0.65 0.66 0.60 0.54 0.50 0.44 0.46 0.53 0.61 0.66 0.57 0.52 0.52 0.52 0.58 0.77 0.84 0.97 1.22

GEFSNE_prec_meanprecacc_186.txt.gz
Total_Precipitation_Accumulation
1.04 1.02 1.00 0.94 0.91 0.95 1.04 1.21 1.43 1.37 1.07 0.86 0.82 0.81 0.84 0.85 0.90 0.84 0.74 0.90 0.96 0.96 1.00 1.05 1.02 1.01 1.04 1.15 1.37 1.59 1.72 1.73 1.75 1.84 1.91 1.92 2.01 2.18
0.96 0.96 0.94 0.91 0.92 0.95 1.01 1.10 1.24 1.37 1.24 0.91 0.78 0.73 0.77 0.79 0.87 0.78 0.73 0.89 0.90 0.90 0.91 0.91 0.92 0.96 1.00 1.07 1.18 1.33 1.54 1.65 1.66 1.69 1.78 1.86 1.95 2.07
0.89 0.88 0.88 0.86 0.89 0.90 0.95 1.01 1.06 1.15 1.16 0.91 0.76 0.73 0.76 0.76 0.79 0.77 0.73 0.71 0.70 0.79 0.81 0.81 0.82 0.88 0.97 1.03 1.09 1.18 1.34 1.47 1.58 1.63 1.73 1.83 1.90 1.92
0.87 0.90 0.90 0.92 0.96 0.99 1.02 1.02 1.01 1.02 1.05 0.97 0.80 0.70 0.66 0.64 0.64 0.67 0.69 0.68 0.64 0.75 0.76 0.75 0.78 0.84 0.92 0.95 0.98 1.05 1.15 1.22 1.34 1.43 1.48 1.57 1.66 1.77
0.81 0.87 0.91 0.96 1.02 1.03 1.03 1.01 0.97 0.94 0.95 0.97 0.85 0.71 0.65 0.61 0.63 0.64 0.65 0.65 0.62 0.68 0.72 0.71 0.74 0.78 0.83 0.90 0.95 0.96 0.98 1.04 1.10 1.19 1.27 1.34 1.43 1.53
0.85 0.86 0.89 0.91 0.91 0.91 0.90 0.88 0.89 0.90 0.91 0.94 0.90 0.78 0.68 0.63 0.67 0.74 0.73 0.65 0.61 0.56 0.61 0.62 0.64 0.65 0.68 0.74 0.81 0.83 0.85 0.93 1.02 1.11 1.23 1.27 1.30 1.41
0.92 0.90 0.86 0.84 0.79 0.78 0.78 0.77 0.77 0.84 0.92 0.97 0.92 0.82 0.71 0.67 0.67 0.66 0.72 0.69 0.64 0.58 0.55 0.53 0.54 0.52 0.53 0.60 0.69 0.81 0.90 1.01 1.15 1.25 1.37 1.47 1.53 1.59
0.82 0.78 0.76 0.75 0.73 0.76 0.77 0.77 0.81 0.91 1.02 1.01 0.90 0.75 0.59 0.55 0.60 0.70 0.81 0.86 0.77 0.57 0.56 0.57 0.58 0.59 0.56 0.58 0.72 0.83 0.94 1.07 1.22 1.30 1.38 1.45 1.53 1.63
0.73 0.68 0.64 0.59 0.60 0.57 0.64 0.72 0.74 0.80 0.85 0.84 0.79 0.65 0.59 0.58 0.73 0.90 0.89 0.85 0.70 0.52 0.56 0.63 0.60 0.64 0.63 0.68 0.80 0.83 0.94 1.05 1.19 1.27 1.36 1.41 1.47 1.57
0.58 0.54 0.50 0.49 0.50 0.53 0.59 0.67 0.60 0.57 0.57 0.56 0.57 0.61 0.62 0.62 0.72 0.87 0.88 0.85 0.71 0.61 0.60 0.70 0.63 0.64 0.63 0.68 0.80 0.79 0.85 0.97 1.11 1.24 1.34 1.37 1.42 1.51
0.46 0.47 0.49 0.45 0.52 0.66 0.69 0.66 0.54 0.45 0.48 0.54 0.60 0.60 0.61 0.61 0.64 0.85 1.02 1.08 0.92 0.68 0.59 0.62 0.57 0.59 0.65 0.69 0.77 0.84 0.84 0.92 1.06 1.17 1.23 1.30 1.39 1.46
0.43 0.46 0.51 0.49 0.57 0.69 0.64 0.61 0.54 0.45 0.46 0.44 0.44 0.44 0.44 0.48 0.59 0.72 1.08 1.39 1.11 0.80 0.54 0.66 0.69 0.75 0.94 0.72 0.71 0.77 0.81 0.91 1.02 1.07 1.11 1.19 1.27 1.28
0.43 0.42 0.44 0.60 0.68 0.66 0.59 0.49 0.52 0.57 0.50 0.41 0.39 0.39 0.39 0.41 0.44 0.50 0.73 1.30 1.51 1.04 0.54 0.97 1.12 0.85 1.01 0.80 0.69 0.76 0.88 1.04 1.12 1.13 1.13 1.14 1.18 1.25
0.41 0.37 0.43 0.61 0.61 0.55 0.49 0.52 0.61 0.58 0.46 0.45 0.44 0.43 0.41 0.39 0.39 0.42 0.49 0.66 0.96 1.07 0.75 1.14 1.57 1.17 1.24 1.04 0.82 0.84 0.92 1.14 1.40 1.46 1.40 1.36 1.27 1.26
0.49 0.56 0.59 0.55 0.49 0.45 0.47 0.51 0.51 0.47 0.53 0.60 0.55 0.46 0.41 0.40 0.42 0.46 0.48 0.53 0.61 0.66 0.71 0.87 1.24 1.30 1.44 1.41 1.12 0.96 1.07 1.21 1.53 1.82 1.73 1.51 1.30 1.22
0.60 0.62 0.56 0.48 0.43 0.43 0.46 0.46 0.44 0.45 0.56 0.64 0.59 0.48 0.43 0.47 0.52 0.60 0.70 0.72 0.78 0.71 0.70 0.76 0.93 1.26 1.37 1.17 1.25 1.18 1.23 1.58 1.78 1.97 1.85 1.59 1.36 1.19
0.67 0.54 0.45 0.42 0.42 0.40 0.38 0.39 0.42 0.46 0.52 0.54 0.58 0.58 0.52 0.52 0.53 0.63 0.84 0.95 0.98 0.84 0.76 0.70 0.72 0.84 1.02 1.13 1.20 1.14 1.26 1.51 1.74 1.89 1.70 1.55 1.48 1.36
0.60 0.50 0.47 0.43 0.41 0.38 0.37 0.38 0.39 0.44 0.51 0.60 0.62 0.62 0.63 0.63 0.63 0.65 0.83 1.00 1.01 0.89 0.82 0.73 0.72 0.78 0.80 0.85 1.08 1.28 1.33 1.51 1.63 1.57 1.29 1.30 1.41 1.31
0.49 0.48 0.47 0.47 0.45 0.43 0.44 0.45 0.45 0.43 0.54 0.68 0.73 0.73 0.73 0.70 0.72 0.77 0.85 0.91 0.89 0.79 0.68 0.63 0.74 1.03 1.05 0.78 0.70 1.03 1.40 1.48 1.36 1.27 1.10 1.12 1.35 1.30
0.39 0.44 0.45 0.46 0.48 0.51 0.54 0.56 0.56 0.55 0.60 0.69 0.73 0.76 0.82 0.87 0.84 0.84 0.87 0.90 0.85 0.67 0.51 0.43 0.55 0.95 1.35 1.21 0.97 0.93 1.07 1.27 1.34 1.34 1.13 1.00 1.09 1.10
0.37 0.39 0.40 0.44 0.50 0.55 0.58 0.61 0.66 0.70 0.73 0.83 0.84 0.84 0.90 0.98 0.92 0.83 0.81 0.75 0.68 0.59 0.51 0.40 0.40 0.61 0.92 1.03 0.90 0.76 0.87 0.99 1.16 1.48 1.42 1.24 1.05 0.91
0.39 0.40 0.40 0.43 0.50 0.56 0.59 0.63 0.69 0.71 0.77 0.84 0.87 0.90 0.94 1.02 0.98 0.82 0.72 0.68 0.61 0.56 0.51 0.41 0.36 0.45 0.66 0.90 0.80 0.63 0.66 0.69 0.71 0.77 1.02 1.36 1.71 1.78
0.43 0.43 0.43 0.46 0.53 0.58 0.62 0.63 0.68 0.71 0.78 0.89 0.93 0.91 0.90 0.86 0.75 0.72 0.68 0.68 0.68 0.61 0.56 0.51 0.46 0.48 0.55 0.63 0.67 0.59 0.53 0.53 0.53 0.59 0.78 0.85 0.99 1.24

GEFSNE_prec_meanprecacc_192.txt.gz
Total_Precipitation_Accumulation
1.09 1.07 1.03 0.96 0.93 0.96 1.06 1.23 1.45 1.38 1.08 0.86 0.82 0.81 0.84 0.85 0.90 0.84 0.74 0.90 0.96 0.97 1.01 1.06 1.04 1.03 1.07 1.19 1.42 1.64 1.77 1.80 1.81 1.90 1.96 1.96 2.04 2.20
1.00 1.00 0.97 0.93 0.93 0.96 1.02 1.11 1.25 1.38 1.24 0.91 0.78 0.73 0.77 0.79 0.87 0.78 0.73 0.90 0.90 0.90 0.91 0.91 0.93 0.97 1.01 1.09 1.21 1.38 1.60 1.73 1.74 1.76 1.84 1.91 1.99 2.09
0.96 0.94 0.91 0.89 0.90 0.91 0.96 1.02 1.07 1.16 1.17 0.92 0.76 0.73 0.76 0.76 0.79 0.77 0.73 0.71 0.70 0.80 0.81 0.81 0.83 0.89 0.98 1.04 1.10 1.20 1.38 1.52 1.66 1.72 1.80 1.89 1.94 1.96
0.93 0.95 0.95 0.95 0.98 1.00 1.02 1.02 1.01 1.02 1.06 0.97 0.80 0.70 0.66 0.64 0.64 0.67 0.69 0.68 0.64 0.75 0.77 0.75 0.79 0.85 0.94 0.97 0.99 1.07 1.16 1.25 1.38 1.50 1.57 1.64 1.73 1.82
0.86 0.90 0.94 0.99 1.04 1.04 1.03 1.01 0.98 0.95 0.95 0.97 0.85 0.71 0.65 0.61 0.63 0.64 0.65 0.65 0.62 0.68 0.72 0.72 0.75 0.79 0.85 0.94 0.98 0.97 1.00 1.06 1.13 1.24 1.34 1.41 1.48 1.58
0.88 0.89 0.91 0.93 0.93 0.93 0.91 0.88 0.90 0.90 0.91 0.94 0.90 0.78 0.68 0.63 0.67 0.74 0.73 0.65 0.61 0.56 0.61 0.62 0.65 0.67 0.70 0.77 0.85 0.87 0.89 0.96 1.05 1.15 1.28 1.33 1.36 1.46
0.94 0.92 0.88 0.85 0.80 0.78 0.78 0.77 0.77 0.84 0.92 0.97 0.92 0.82 0.71 0.68 0.67 0.66 0.72 0.70 0.64 0.58 0.55 0.54 0.54 0.53 0.55 0.62 0.72 0.85 0.95 1.06 1.20 1.30 1.41 1.51 1.58 1.63
0.84 0.80 0.78 0.78 0.75 0.78 0.77 0.77 0.82 0.92 1.02 1.02 0.90 0.75 0.59 0.55 0.60 0.71 0.82 0.87 0.78 0.57 0.56 0.58 0.58 0.60 0.57 0.60 0.75 0.87 1.00 1.12 1.28 1.36 1.43 1.48 1.56 1.66
0.76 0.70 0.66 0.62 0.63 0.59 0.66 0.72 0.74 0.80 0.85 0.85 0.79 0.65 0.59 0.58 0.74 0.91 0.90 0.86 0.70 0.52 0.57 0.64 0.60 0.64 0.64 0.70 0.83 0.87 0.99 1.12 1.26 1.35 1.43 1.46 1.50 1.60
0.62 0.58 0.53 0.52 0.52 0.56 0.62 0.68 0.61 0.57 0.58 0.56 0.58 0.61 0.63 0.62 0.73 0.88 0.89 0.86 0.72 0.61 0.61 0.71 0.63 0.65 0.64 0.69 0.82 0.82 0.88 1.01 1.17 1.31 1.42 1.44 1.46 1.55
0.49 0.51 0.53 0.49 0.55 0.69 0.71 0.69 0.56 0.47 0.48 0.55 0.60 0.60 0.62 0.62 0.65 0.86 1.03 1.09 0.93 0.68 0.60 0.63 0.57 0.59 0.65 0.71 0.79 0.87 0.87 0.95 1.10 1.22 1.28 1.36 1.45 1.51
0.45 0.48 0.54 0.52 0.60 0.72 0.66 0.63 0.56 0.47 0.47 0.45 0.44 0.45 0.44 0.48 0.59 0.73 1.10 1.41 1.13 0.82 0.55 0.67 0.69 0.76 0.95 0.73 0.73 0.80 0.84 0.95 1.06 1.11 1.14 1.23 1.32 1.31
0.45 0.43 0.45 0.61 0.69 0.68 0.61 0.51 0.53 0.59 0.51 0.42 0.40 0.39 0.39 0.41 0.44 0.50 0.74 1.31 1.53 1.05 0.55 0.98 1.13 0.86 1.03 0.82 0.71 0.79 0.91 1.07 1.15 1.15 1.16 1.17 1.21 1.27
0.42 0.38 0.44 0.62 0.62 0.56 0.50 0.53 0.62 0.59 0.47 0.46 0.45 0.44 0.41 0.39 0.39 0.42 0.49 0.67 0.98 1.08 0.77 1.16 1.60 1.19 1.26 1.05 0.83 0.86 0.94 1.16 1.42 1.48 1.42 1.38 1.29 1.28
0.50 0.57 0.60 0.56 0.49 0.46 0.47 0.51 0.51 0.48 0.53 0.60 0.55 0.46 0.41 0.40 0.42 0.47 0.49 0.54 0.62 0.67 0.73 0.89 1.27 1.32 1.47 1.43 1.14 0.97 1.09 1.23 1.55 1.83 1.74 1.52 1.31 1.24
0.60 0.63 0.57 0.48 0.43 0.43 0.46 0.46 0.44 0.46 0.57 0.65 0.60 0.49 0.44 0.47 0.52 0.60 0.70 0.72 0.80 0.72 0.71 0.78 0.96 1.28 1.40 1.19 1.27 1.21 1.25 1.59 1.79 1.98 1.86 1.60 1.37 1.20
0.67 0.54 0.46 0.43 0.42 0.40 0.38 0.39 0.42 0.47 0.53 0.55 0.59 0.59 0.53 0.53 0.54 0.64 0.85 0.97 1.01 0.87 0.77 0.73 0.75 0.87 1.06 1.17 1.22 1.16 1.29 1.53 1.75 1.91 1.70 1.55 1.49 1.36
0.61 0.51 0.47 0.44 0.41 0.38 0.37 0.39 0.40 0.44 0.52 0.61 0.63 0.64 0.65 0.64 0.64 0.67 0.85 1.03 1.03 0.91 0.84 0.76 0.76 0.82 0.84 0.88 1.11 1.30 1.35 1.53 1.64 1.58 1.29 1.30 1.42 1.31
0.50 0.49 0.48 0.47 0.45 0.43 0.44 0.46 0.45 0.44 0.55 0.69 0.75 0.75 0.75 0.72 0.74 0.79 0.87 0.94 0.91 0.82 0.71 0.65 0.77 1.06 1.09 0.81 0.72 1.05 1.41 1.49 1.37 1.27 1.11 1.13 1.36 1.30
0.40 0.44 0.46 0.47 0.49 0.52 0.54 0.57 0.57 0.56 0.61 0.70 0.75 0.78 0.84 0.89 0.86 0.86 0.90 0.93 0.88 0.70 0.54 0.46 0.58 0.98 1.38 1.23 0.99 0.94 1.08 1.28 1.34 1.34 1.14 1.01 1.10 1.10
0.38 0.40 0.41 0.44 0.51 0.56 0.59 0.62 0.67 0.71 0.75 0.85 0.85 0.86 0.91 1.00 0.94 0.86 0.85 0.79 0.72 0.63 0.55 0.43 0.42 0.63 0.95 1.06 0.92 0.77 0.88 1.00 1.17 1.49 1.43 1.26 1.06 0.92
0.40 0.41 0.41 0.44 0.51 0.57 0.60 0.64 0.71 0.73 0.79 0.86 0.89 0.91 0.96 1.04 1.00 0.85 0.75 0.72 0.65 0.60 0.55 0.44 0.39 0.48 0.69 0.92 0.81 0.64 0.67 0.71 0.72 0.79 1.04 1.38 1.73 1.80
0.45 0.45 0.45 0.49 0.55 0.60 0.64 0.65 0.70 0.74 0.80 0.91 0.95 0.93 0.93 0.89 0.78 0.75 0.72 0.72 0.72 0.66 0.60 0.55 0.49 0.50 0.57 0.65 0.69 0.60 0.54 0.54 0.54 0.60 0.79 0.86 1.01 1.26

GEFSNE_prec_meanprecacc_198.txt.gz
Total_Precipitation_Accumulation
1.15 1.10 1.05 0.98 0.95 0.99 1.10 1.27 1.48 1.40 1.09 0.87 0.84 0.83 0.86 0.86 0.92 0.86 0.76 0.91 0.97 0.97 1.01 1.06 1.05 1.03 1.07 1.20 1.44 1.68 1.84 1.88 1.89 1.95 2.01 2.02 2.10 2.25
1.07 1.06 1.01 0.96 0.96 0.99 1.06 1.15 1.29 1.41 1.27 0.93 0.79 0.75 0.78 0.80 0.88 0.79 0.74 0.90 0.90 0.91 0.92 0.92 0.93 0.97 1.02 1.09 1.22 1.39 1.62 1.76 1.78 1.80 1.87 1.94 2.03 2.15
1.03 1.01 0.98 0.94 0.94 0.95 0.99 1.05 1.11 1.20 1.20 0.94 0.77 0.74 0.76 0.76 0.79 0.77 0.73 0.71 0.70 0.80 0.81 0.81 0.83 0.89 0.98 1.04 1.10 1.20 1.39 1.54 1.68 1.75 1.85 1.94 1.99 2.00
1.00 1.01 1.02 1.02 1.04 1.04 1.05 1.04 1.04 1.04 1.08 0.99 0.80 0.71 0.66 0.64 0.64 0.67 0.69 0.68 0.64 0.75 0.77 0.75 0.79 0.85 0.94 0.97 0.99 1.07 1.17 1.27 1.40 1.52 1.60 1.71 1.82 1.90
0.91 0.95 0.99 1.04 1.10 1.10 1.08 1.04 1.00 0.96 0.97 0.98 0.85 0.71 0.65 0.61 0.63 0.64 0.65 0.65 0.62 0.68 0.72 0.72 0.75 0.79 0.85 0.94 0.98 0.98 1.00 1.07 1.15 1.26 1.36 1.44 1.53 1.66
0.92 0.94 0.95 0.96 0.96 0.96 0.95 0.92 0.93 0.93 0.93 0.96 0.91 0.79 0.69 0.63 0.67 0.74 0.73 0.65 0.61 0.56 0.61 0.62 0.65 0.67 0.70 0.77 0.85 0.87 0.89 0.96 1.06 1.16 1.30 1.36 1.40 1.51
0.97 0.96 0.92 0.89 0.83 0.81 0.81 0.81 0.80 0.86 0.95 0.99 0.94 0.83 0.72 0.68 0.68 0.66 0.72 0.70 0.64 0.58 0.55 0.54 0.54 0.53 0.55 0.62 0.72 0.85 0.95 1.07 1.21 1.30 1.42 1.53 1.61 1.67
0.87 0.83 0.82 0.82 0.79 0.81 0.80 0.80 0.84 0.94 1.04 1.04 0.92 0.76 0.60 0.55 0.60 0.71 0.82 0.87 0.78 0.57 0.56 0.58 0.58 0.60 0.57 0.60 0.75 0.87 1.00 1.13 1.28 1.37 1.43 1.50 1.58 1.69
0.79 0.73 0.69 0.65 0.67 0.62 0.69 0.75 0.77 0.83 0.88 0.87 0.81 0.66 0.59 0.58 0.74 0.91 0.90 0.86 0.71 0.53 0.57 0.64 0.60 0.64 0.64 0.70 0.83 0.87 1.00 1.13 1.27 1.35 1.43 1.47 1.51 1.61
0.65 0.61 0.56 0.55 0.56 0.59 0.65 0.72 0.64 0.59 0.60 0.57 0.59 0.62 0.64 0.63 0.73 0.88 0.89 0.86 0.72 0.61 0.61 0.71 0.63 0.65 0.64 0.69 0.82 0.82 0.88 1.02 1.18 1.32 1.43 1.46 1.49 1.56
0.53 0.55 0.57 0.52 0.59 0.73 0.75 0.72 0.60 0.49 0.51 0.57 0.62 0.62 0.64 0.63 0.66 0.87 1.03 1.10 0.93 0.68 0.60 0.63 0.57 0.59 0.65 0.71 0.79 0.87 0.87 0.96 1.10 1.23 1.30 1.39 1.49 1.54
0.48 0.52 0.59 0.57 0.66 0.77 0.69 0.66 0.59 0.50 0.50 0.48 0.47 0.47 0.46 0.49 0.60 0.74 1.10 1.41 1.14 0.82 0.55 0.67 0.69 0.76 0.96 0.73 0.73 0.80 0.84 0.95 1.07 1.12 1.16 1.25 1.35 1.36
0.48 0.47 0.49 0.67 0.75 0.74 0.65 0.55 0.58 0.63 0.54 0.45 0.43 0.42 0.41 0.43 0.45 0.51 0.75 1.33 1.54 1.06 0.56 0.98 1.14 0.87 1.04 0.82 0.71 0.79 0.92 1.08 1.16 1.17 1.17 1.19 1.24 1.32
0.45 0.42 0.48 0.66 0.67 0.61 0.54 0.57 0.67 0.64 0.51 0.49 0.48 0.47 0.44 0.41 0.41 0.44 0.50 0.68 0.99 1.09 0.77 1.17 1.61 1.20 1.27 1.06 0.84 0.87 0.95 1.17 1.43 1.50 1.43 1.40 1.32 1.32
0.53 0.60 0.64 0.60 0.53 0.50 0.51 0.56 0.55 0.51 0.56 0.64 0.59 0.49 0.44 0.43 0.45 0.48 0.50 0.55 0.63 0.68 0.74 0.90 1.28 1.33 1.48 1.45 1.15 0.98 1.11 1.25 1.57 1.85 1.76 1.55 1.34 1.27
0.63 0.66 0.60 0.52 0.47 0.47 0.50 0.49 0.47 0.49 0.59 0.67 0.62 0.51 0.46 0.49 0.54 0.62 0.72 0.74 0.81 0.73 0.72 0.79 0.97 1.30 1.41 1.20 1.28 1.22 1.26 1.61 1.81 2.00 1.88 1.62 1.40 1.24
0.70 0.57 0.49 0.46 0.46 0.43 0.42 0.42 0.45 0.49 0.55 0.57 0.61 0.60 0.54 0.54 0.55 0.65 0.86 0.98 1.02 0.87 0.78 0.73 0.75 0.88 1.07 1.18 1.24 1.17 1.30 1.54 1.77 1.93 1.73 1.58 1.51 1.38
0.65 0.54 0.50 0.46 0.44 0.41 0.39 0.41 0.42 0.47 0.54 0.63 0.65 0.65 0.66 0.66 0.65 0.68 0.86 1.04 1.04 0.92 0.84 0.76 0.77 0.84 0.86 0.89 1.11 1.31 1.36 1.54 1.66 1.60 1.32 1.33 1.44 1.33
0.53 0.52 0.50 0.49 0.47 0.45 0.46 0.47 0.47 0.46 0.57 0.71 0.77 0.76 0.76 0.73 0.75 0.81 0.88 0.95 0.93 0.83 0.72 0.66 0.79 1.09 1.11 0.83 0.73 1.06 1.43 1.51 1.38 1.29 1.13 1.15 1.38 1.32
0.43 0.47 0.48 0.48 0.50 0.53 0.55 0.58 0.58 0.57 0.63 0.72 0.76 0.79 0.85 0.90 0.88 0.87 0.91 0.95 0.90 0.72 0.56 0.47 0.59 1.00 1.41 1.26 1.01 0.96 1.10 1.30 1.36 1.36 1.16 1.02 1.11 1.12
0.41 0.42 0.43 0.47 0.53 0.58 0.60 0.63 0.68 0.73 0.76 0.86 0.86 0.87 0.93 1.02 0.96 0.87 0.86 0.81 0.74 0.65 0.56 0.44 0.43 0.65 0.97 1.09 0.96 0.80 0.91 1.03 1.19 1.51 1.45 1.27 1.08 0.94
0.42 0.43 0.44 0.46 0.53 0.59 0.63 0.66 0.72 0.74 0.80 0.88 0.91 0.93 0.98 1.05 1.02 0.87 0.77 0.74 0.67 0.62 0.57 0.46 0.41 0.50 0.71 0.96 0.85 0.67 0.69 0.73 0.75 0.82 1.06 1.40 1.75 1.81
0.46 0.47 0.47 0.50 0.56 0.62 0.66 0.67 0.73 0.75 0.82 0.93 0.97 0.95 0.95 0.91 0.80 0.77 0.74 0.74 0.75 0.69 0.63 0.58 0.51 0.53 0.59 0.67 0.72 0.63 0.56 0.56 0.56 0.62 0.81 0.88 1.02 1.28

GEFSNE_prec_meanprecacc_204.txt.gz
Total_Precipitation_Accumulation
1.23 1.19 1.13 1.04 0.99 1.03 1.13 1.29 1.51 1.44 1.12 0.91 0.88 0.86 0.89 0.89 0.95 0.88 0.78 0.94 0.99 0.99 1.04 1.08 1.06 1.04 1.08 1.21 1.45 1.70 1.86 1.91 1.93 1.99 2.05 2.06 2.14 2.30
1.18 1.15 1.11 1.05 1.03 1.04 1.09 1.18 1.31 1.44 1.30 0.95 0.82 0.77 0.80 0.82 0.91 0.81 0.75 0.92 0.92 0.92 0.93 0.93 0.94 0.98 1.02 1.10 1.23 1.40 1.63 1.78 1.80 1.82 1.89 1.96 2.05 2.16
1.13 1.11 1.08 1.03 1.04 1.02 1.05 1.10 1.15 1.23 1.24 0.97 0.80 0.77 0.79 0.78 0.81 0.79 0.75 0.72 0.71 0.81 0.82 0.82 0.83 0.89 0.98 1.05 1.11 1.21 1.40 1.55 1.69 1.76 1.86 1.95 2.00 2.01
1.05 1.08 1.09 1.09 1.12 1.13 1.13 1.12 1.09 1.09 1.11 1.02 0.83 0.73 0.68 0.65 0.65 0.68 0.69 0.69 0.64 0.75 0.77 0.76 0.80 0.85 0.94 0.97 1.00 1.07 1.18 1.27 1.40 1.53 1.60 1.71 1.83 1.92
0.95 1.00 1.03 1.09 1.15 1.16 1.14 1.10 1.05 1.01 1.00 1.01 0.87 0.73 0.67 0.62 0.64 0.65 0.66 0.65 0.62 0.68 0.72 0.72 0.75 0.80 0.85 0.94 0.98 0.98 1.00 1.07 1.15 1.27 1.37 1.45 1.54 1.67
0.94 0.96 0.97 0.98 0.98 0.98 0.97 0.95 0.96 0.97 0.96 0.98 0.93 0.80 0.71 0.66 0.69 0.76 0.74 0.65 0.61 0.56 0.62 0.62 0.65 0.67 0.70 0.77 0.85 0.87 0.89 0.96 1.06 1.16 1.31 1.37 1.40 1.52
0.98 0.97 0.93 0.90 0.84 0.83 0.83 0.82 0.82 0.89 0.97 1.01 0.95 0.84 0.74 0.70 0.69 0.68 0.73 0.70 0.65 0.58 0.55 0.54 0.54 0.53 0.55 0.62 0.72 0.85 0.95 1.07 1.21 1.30 1.42 1.54 1.61 1.67
0.88 0.85 0.83 0.83 0.80 0.82 0.82 0.81 0.86 0.95 1.06 1.05 0.93 0.77 0.61 0.56 0.61 0.72 0.83 0.88 0.78 0.57 0.56 0.58 0.58 0.60 0.57 0.60 0.75 0.87 1.00 1.13 1.29 1.37 1.44 1.50 1.58 1.69
0.80 0.74 0.71 0.66 0.68 0.63 0.70 0.76 0.78 0.84 0.88 0.88 0.82 0.67 0.60 0.59 0.75 0.92 0.91 0.87 0.71 0.53 0.57 0.64 0.61 0.64 0.64 0.70 0.83 0.87 1.00 1.13 1.27 1.36 1.44 1.47 1.52 1.62
0.67 0.62 0.58 0.57 0.57 0.61 0.67 0.74 0.65 0.60 0.61 0.58 0.59 0.63 0.64 0.64 0.74 0.90 0.91 0.88 0.73 0.62 0.61 0.71 0.63 0.65 0.64 0.69 0.82 0.82 0.88 1.02 1.18 1.32 1.43 1.46 1.49 1.57
0.54 0.56 0.58 0.54 0.61 0.75 0.77 0.75 0.62 0.51 0.53 0.59 0.63 0.63 0.65 0.64 0.67 0.88 1.05 1.11 0.95 0.69 0.60 0.63 0.57 0.60 0.66 0.71 0.79 0.87 0.88 0.96 1.10 1.23 1.30 1.39 1.49 1.55
0.49 0.53 0.60 0.59 0.67 0.78 0.71 0.69 0.62 0.53 0.52 0.50 0.48 0.49 0.47 0.51 0.62 0.75 1.11 1.43 1.16 0.83 0.55 0.68 0.70 0.77 0.96 0.73 0.73 0.80 0.84 0.95 1.07 1.13 1.16 1.26 1.36 1.37
0.49 0.48 0.50 0.68 0.76 0.75 0.67 0.57 0.61 0.66 0.57 0.47 0.45 0.44 0.43 0.45 0.48 0.52 0.76 1.34 1.56 1.07 0.56 0.99 1.15 0.88 1.05 0.83 0.71 0.79 0.92 1.08 1.16 1.17 1.18 1.20 1.25 1.33
0.46 0.42 0.49 0.68 0.68 0.62 0.56 0.59 0.70 0.67 0.54 0.53 0.52 0.50 0.47 0.43 0.43 0.45 0.52 0.69 0.99 1.09 0.78 1.18 1.62 1.22 1.29 1.07 0.84 0.87 0.95 1.18 1.45 1.51 1.45 1.41 1.33 1.33
0.54 0.61 0.64 0.61 0.54 0.51 0.54 0.59 0.58 0.54 0.60 0.68 0.63 0.53 0.48 0.46 0.47 0.50 0.52 0.57 0.65 0.69 0.74 0.91 1.29 1.34 1.50 1.47 1.16 0.99 1.11 1.26 1.58 1.86 1.77 1.55 1.35 1.28
0.64 0.67 0.61 0.53 0.48 0.48 0.52 0.52 0.50 0.52 0.63 0.72 0.66 0.55 0.50 0.54 0.58 0.65 0.75 0.76 0.84 0.76 0.74 0.80 0.98 1.31 1.43 1.22 1.30 1.23 1.27 1.63 1.82 2.01 1.88 1.63 1.40 1.25
0.72 0.58 0.50 0.47 0.47 0.45 0.44 0.44 0.47 0.53 0.60 0.61 0.66 0.65 0.60 0.59 0.61 0.70 0.90 1.02 1.05 0.90 0.80 0.75 0.77 0.90 1.09 1.20 1.26 1.18 1.31 1.55 1.78 1.93 1.74 1.59 1.52 1.40
0.67 0.56 0.51 0.47 0.45 0.42 0.41 0.44 0.45 0.50 0.58 0.68 0.71 0.71 0.72 0.72 0.71 0.73 0.91 1.09 1.08 0.95 0.87 0.79 0.79 0.86 0.88 0.92 1.13 1.33 1.37 1.55 1.67 1.61 1.33 1.35 1.46 1.35
0.55 0.54 0.52 0.51 0.49 0.46 0.47 0.50 0.50 0.49 0.60 0.75 0.81 0.81 0.82 0.79 0.81 0.87 0.94 1.01 0.98 0.87 0.75 0.69 0.82 1.13 1.15 0.86 0.74 1.07 1.44 1.52 1.39 1.30 1.14 1.16 1.40 1.34
0.45 0.49 0.50 0.50 0.52 0.55 0.57 0.60 0.61 0.61 0.67 0.76 0.80 0.84 0.91 0.96 0.94 0.93 0.97 1.00 0.94 0.76 0.60 0.50 0.62 1.04 1.45 1.30 1.04 0.98 1.11 1.32 1.38 1.38 1.17 1.04 1.13 1.14
0.44 0.45 0.45 0.49 0.55 0.60 0.63 0.66 0.71 0.75 0.80 0.91 0.91 0.91 0.97 1.06 1.01 0.92 0.91 0.86 0.79 0.70 0.60 0.47 0.46 0.68 1.02 1.14 0.99 0.82 0.92 1.04 1.21 1.54 1.48 1.30 1.10 0.95
0.45 0.46 0.46 0.48 0.56 0.62 0.65 0.69 0.75 0.77 0.83 0.92 0.95 0.97 1.02 1.09 1.06 0.91 0.81 0.78 0.71 0.66 0.61 0.49 0.44 0.54 0.75 1.00 0.88 0.69 0.71 0.74 0.77 0.84 1.10 1.43 1.78 1.84
0.49 0.50 0.50 0.53 0.59 0.64 0.69 0.70 0.75 0.78 0.85 0.96 1.01 0.99 0.99 0.95 0.84 0.81 0.78 0.78 0.79 0.72 0.66 0.61 0.54 0.56 0.62 0.70 0.75 0.65 0.59 0.58 0.58 0.64 0.84 0.91 1.05 1.30

GEFSNE_prec_meanprecacc_210.txt.gz
Total_Precipitation_Accumulation
1.27 1.22 1.15 1.06 1.01 1.04 1.15 1.32 1.54 1.47 1.15 0.93 0.90 0.89 0.92 0.92 0.97 0.90 0.79 0.96 1.02 1.02 1.06 1.11 1.09 1.07 1.11 1.24 1.47 1.71 1.87 1.92 1.95 2.01 2.08 2.09 2.17 2.32
1.23 1.19 1.14 1.08 1.05 1.06 1.11 1.20 1.34 1.47 1.32 0.97 0.84 0.80 0.83 0.85 0.93 0.83 0.77 0.94 0.94 0.94 0.95 0.94 0.95 0.99 1.03 1.12 1.25 1.41 1.64 1.79 1.82 1.83 1.91 1.98 2.07 2.18
1.19 1.16 1.13 1.07 1.07 1.05 1.07 1.12 1.17 1.25 1.26 0.98 0.81 0.78 0.80 0.81 0.84 0.82 0.77 0.74 0.72 0.82 0.83 0.83 0.84 0.90 0.99 1.05 1.11 1.22 1.40 1.56 1.70 1.78 1.87 1.97 2.01 2.02
1.11 1.13 1.13 1.14 1.17 1.17 1.17 1.15 1.13 1.12 1.14 1.04 0.85 0.75 0.70 0.67 0.67 0.70 0.71 0.70 0.65 0.76 0.78 0.77 0.80 0.86 0.94 0.98 1.00 1.07 1.18 1.28 1.41 1.53 1.62 1.73 1.85 1.94
0.99 1.03 1.08 1.13 1.20 1.20 1.19 1.15 1.10 1.05 1.05 1.05 0.91 0.76 0.69 0.65 0.66 0.67 0.68 0.67 0.63 0.69 0.73 0.73 0.76 0.80 0.85 0.94 0.98 0.98 1.00 1.07 1.15 1.27 1.38 1.46 1.55 1.69
0.96 0.98 0.99 1.01 1.01 1.02 1.02 1.00 1.01 1.01 1.00 1.02 0.96 0.83 0.73 0.68 0.72 0.78 0.76 0.67 0.63 0.57 0.63 0.63 0.65 0.67 0.70 0.77 0.85 0.88 0.89 0.96 1.06 1.17 1.31 1.37 1.41 1.52
1.00 0.99 0.94 0.92 0.87 0.86 0.86 0.85 0.86 0.93 1.01 1.05 0.99 0.87 0.76 0.72 0.72 0.70 0.75 0.72 0.66 0.59 0.56 0.55 0.55 0.54 0.55 0.62 0.73 0.85 0.95 1.07 1.21 1.30 1.43 1.54 1.61 1.68
0.89 0.86 0.84 0.84 0.82 0.84 0.84 0.83 0.88 0.99 1.09 1.09 0.96 0.79 0.63 0.58 0.64 0.74 0.85 0.90 0.80 0.58 0.57 0.58 0.58 0.60 0.57 0.61 0.76 0.88 1.01 1.13 1.29 1.37 1.44 1.50 1.58 1.70
0.81 0.75 0.71 0.67 0.69 0.65 0.72 0.78 0.80 0.86 0.92 0.91 0.84 0.69 0.62 0.61 0.77 0.94 0.93 0.89 0.72 0.54 0.58 0.65 0.61 0.65 0.64 0.70 0.84 0.87 1.00 1.13 1.27 1.36 1.44 1.48 1.52 1.62
0.68 0.63 0.59 0.58 0.59 0.62 0.69 0.76 0.67 0.62 0.63 0.60 0.61 0.65 0.66 0.65 0.76 0.91 0.92 0.89 0.74 0.63 0.62 0.73 0.64 0.65 0.64 0.70 0.83 0.82 0.88 1.02 1.18 1.32 1.44 1.47 1.49 1.57
0.55 0.57 0.59 0.55 0.63 0.77 0.79 0.77 0.64 0.52 0.54 0.61 0.65 0.64 0.66 0.66 0.69 0.90 1.07 1.13 0.96 0.70 0.61 0.64 0.58 0.60 0.66 0.71 0.80 0.88 0.88 0.96 1.11 1.23 1.30 1.40 1.50 1.55
0.51 0.55 0.62 0.60 0.69 0.81 0.74 0.71 0.64 0.54 0.53 0.51 0.50 0.49 0.48 0.52 0.63 0.77 1.13 1.45 1.18 0.85 0.56 0.69 0.71 0.78 0.97 0.74 0.73 0.80 0.85 0.96 1.07 1.13 1.17 1.26 1.36 1.37
0.51 0.49 0.52 0.70 0.78 0.77 0.69 0.59 0.63 0.68 0.58 0.49 0.47 0.45 0.44 0.45 0.48 0.54 0.77 1.36 1.58 1.09 0.57 1.00 1.17 0.89 1.06 0.84 0.71 0.80 0.92 1.09 1.17 1.17 1.18 1.20 1.25 1.34
0.48 0.44 0.50 0.69 0.69 0.64 0.58 0.61 0.72 0.69 0.57 0.55 0.53 0.51 0.48 0.44 0.44 0.47 0.54 0.71 1.02 1.11 0.80 1.20 1.65 1.24 1.31 1.09 0.85 0.87 0.95 1.18 1.45 1.51 1.45 1.42 1.34 1.33
0.56 0.62 0.66 0.62 0.56 0.52 0.55 0.60 0.60 0.56 0.62 0.70 0.64 0.54 0.48 0.47 0.49 0.52 0.54 0.59 0.67 0.71 0.77 0.93 1.32 1.37 1.53 1.50 1.18 1.00 1.12 1.27 1.59 1.86 1.77 1.56 1.35 1.28
0.66 0.68 0.62 0.54 0.49 0.49 0.52 0.53 0.51 0.54 0.65 0.74 0.68 0.57 0.51 0.55 0.60 0.68 0.77 0.79 0.87 0.79 0.76 0.83 1.01 1.34 1.46 1.25 1.32 1.25 1.29 1.64 1.83 2.01 1.89 1.64 1.41 1.25
0.73 0.59 0.50 0.48 0.47 0.45 0.44 0.45 0.48 0.54 0.61 0.63 0.68 0.67 0.61 0.61 0.62 0.73 0.94 1.05 1.09 0.94 0.84 0.78 0.80 0.93 1.13 1.24 1.29 1.21 1.33 1.57 1.79 1.94 1.75 1.60 1.53 1.40
0.68 0.57 0.53 0.48 0.46 0.43 0.42 0.45 0.46 0.51 0.59 0.69 0.73 0.73 0.74 0.74 0.73 0.76 0.95 1.13 1.13 0.99 0.91 0.82 0.83 0.90 0.93 0.95 1.16 1.35 1.39 1.57 1.68 1.62 1.35 1.36 1.47 1.36
0.57 0.56 0.54 0.52 0.50 0.48 0.49 0.51 0.52 0.51 0.62 0.77 0.84 0.84 0.85 0.82 0.84 0.90 0.98 1.05 1.03 0.92 0.79 0.73 0.86 1.18 1.21 0.89 0.76 1.09 1.46 1.54 1.41 1.32 1.16 1.18 1.42 1.36
0.47 0.51 0.52 0.52 0.54 0.57 0.59 0.62 0.63 0.63 0.69 0.78 0.82 0.86 0.94 0.99 0.97 0.96 1.00 1.04 0.99 0.81 0.64 0.55 0.67 1.09 1.51 1.34 1.07 1.00 1.13 1.34 1.41 1.41 1.19 1.06 1.15 1.16
0.46 0.47 0.47 0.51 0.57 0.62 0.65 0.68 0.73 0.78 0.82 0.93 0.93 0.94 1.00 1.10 1.05 0.96 0.95 0.90 0.83 0.74 0.65 0.51 0.50 0.73 1.06 1.20 1.05 0.85 0.95 1.07 1.25 1.57 1.51 1.33 1.13 0.97
0.48 0.48 0.48 0.50 0.58 0.64 0.68 0.72 0.78 0.79 0.85 0.94 0.98 1.00 1.04 1.13 1.10 0.95 0.85 0.83 0.75 0.70 0.65 0.53 0.48 0.58 0.81 1.06 0.93 0.72 0.73 0.77 0.80 0.87 1.13 1.47 1.82 1.88
0.52 0.52 0.52 0.55 0.61 0.66 0.71 0.73 0.78 0.80 0.86 0.98 1.03 1.01 1.02 0.99 0.88 0.85 0.82 0.82 0.83 0.77 0.71 0.65 0.58 0.60 0.67 0.75 0.80 0.69 0.62 0.61 0.60 0.67 0.87 0.93 1.07 1.33

GEFSNE_prec_meanprecacc_216.txt.gz
Total_Precipitation_Accumulation
1.34 1.28 1.21 1.09 1.03 1.05 1.15 1.32 1.55 1.48 1.16 0.94 0.91 0.90 0.93 0.93 0.99 0.92 0.81 0.99 1.05 1.06 1.09 1.13 1.11 1.10 1.20 1.33 1.50 1.72 1.88 1.93 1.95 2.02 2.10 2.12 2.19 2.34
1.30 1.26 1.20 1.12 1.08 1.08 1.13 1.21 1.35 1.48 1.33 0.98 0.85 0.80 0.84 0.86 0.95 0.84 0.79 0.96 0.97 0.97 0.97 0.96 0.97 1.01 1.07 1.18 1.29 1.43 1.65 1.79 1.82 1.84 1.92 2.00 2.09 2.20
1.24 1.22 1.19 1.13 1.11 1.09 1.10 1.14 1.19 1.27 1.27 0.99 0.82 0.79 0.81 0.82 0.86 0.83 0.79 0.76 0.74 0.84 0.84 0.84 0.85 0.91 1.01 1.08 1.14 1.23 1.41 1.56 1.71 1.78 1.88 1.98 2.03 2.04
1.14 1.17 1.18 1.18 1.21 1.21 1.21 1.18 1.15 1.14 1.16 1.05 0.86 0.76 0.71 0.68 0.68 0.72 0.74 0.73 0.67 0.78 0.80 0.79 0.82 0.88 0.96 0.99 1.01 1.08 1.18 1.28 1.42 1.54 1.62 1.74 1.86 1.96
1.01 1.06 1.11 1.16 1.23 1.24 1.22 1.18 1.13 1.08 1.08 1.07 0.93 0.78 0.71 0.66 0.67 0.68 0.69 0.70 0.66 0.72 0.76 0.76 0.79 0.82 0.87 0.96 0.99 0.99 1.01 1.08 1.16 1.27 1.38 1.46 1.56 1.70
0.97 0.99 1.02 1.04 1.05 1.05 1.04 1.03 1.03 1.04 1.04 1.06 1.00 0.86 0.76 0.70 0.74 0.80 0.78 0.69 0.65 0.60 0.66 0.66 0.68 0.70 0.72 0.78 0.86 0.89 0.90 0.97 1.07 1.17 1.31 1.38 1.41 1.53
1.02 1.01 0.96 0.95 0.90 0.89 0.89 0.88 0.89 0.96 1.04 1.08 1.02 0.90 0.78 0.74 0.74 0.72 0.77 0.74 0.68 0.62 0.60 0.58 0.57 0.56 0.57 0.64 0.74 0.87 0.96 1.08 1.22 1.31 1.43 1.54 1.62 1.68
0.92 0.88 0.86 0.86 0.84 0.87 0.87 0.86 0.91 1.01 1.12 1.11 0.99 0.82 0.65 0.60 0.65 0.76 0.87 0.92 0.83 0.60 0.60 0.62 0.62 0.63 0.59 0.62 0.77 0.89 1.01 1.14 1.30 1.38 1.45 1.51 1.59 1.70
0.83 0.77 0.73 0.69 0.71 0.67 0.74 0.81 0.83 0.89 0.94 0.93 0.86 0.71 0.64 0.62 0.79 0.97 0.96 0.92 0.75 0.56 0.61 0.68 0.65 0.68 0.66 0.71 0.85 0.88 1.01 1.14 1.29 1.37 1.45 1.48 1.53 1.62
0.69 0.65 0.60 0.59 0.60 0.64 0.71 0.78 0.68 0.64 0.64 0.62 0.63 0.66 0.67 0.67 0.78 0.94 0.95 0.92 0.77 0.66 0.65 0.75 0.66 0.68 0.66 0.71 0.84 0.83 0.89 1.03 1.20 1.34 1.45 1.48 1.50 1.58
0.57 0.59 0.61 0.57 0.64 0.79 0.81 0.79 0.66 0.54 0.56 0.63 0.67 0.67 0.69 0.69 0.72 0.93 1.10 1.17 1.00 0.73 0.64 0.67 0.60 0.62 0.68 0.72 0.81 0.89 0.89 0.97 1.12 1.25 1.32 1.41 1.51 1.56
0.52 0.56 0.63 0.62 0.71 0.83 0.76 0.73 0.66 0.56 0.54 0.53 0.52 0.52 0.50 0.54 0.66 0.79 1.17 1.49 1.21 0.88 0.59 0.71 0.73 0.79 1.00 0.75 0.74 0.81 0.86 0.97 1.09 1.15 1.18 1.28 1.38 1.39
0.52 0.50 0.53 0.71 0.80 0.79 0.72 0.61 0.65 0.70 0.60 0.51 0.49 0.48 0.46 0.47 0.50 0.55 0.79 1.39 1.62 1.12 0.59 1.03 1.19 0.91 1.09 0.86 0.73 0.81 0.93 1.10 1.18 1.19 1.20 1.22 1.27 1.35
0.49 0.45 0.51 0.70 0.71 0.65 0.60 0.63 0.75 0.72 0.59 0.58 0.56 0.54 0.50 0.46 0.46 0.48 0.55 0.73 1.04 1.13 0.81 1.22 1.68 1.27 1.34 1.12 0.87 0.89 0.97 1.20 1.47 1.52 1.46 1.44 1.36 1.35
0.56 0.63 0.66 0.63 0.57 0.54 0.57 0.62 0.62 0.58 0.65 0.73 0.67 0.57 0.51 0.49 0.51 0.54 0.56 0.61 0.70 0.73 0.78 0.95 1.34 1.40 1.56 1.52 1.20 1.01 1.14 1.28 1.60 1.88 1.78 1.57 1.37 1.30
0.67 0.70 0.64 0.55 0.50 0.50 0.54 0.55 0.53 0.55 0.67 0.76 0.71 0.59 0.54 0.57 0.62 0.70 0.79 0.81 0.90 0.82 0.79 0.85 1.03 1.37 1.50 1.27 1.34 1.26 1.30 1.66 1.85 2.03 1.91 1.65 1.42 1.27
0.74 0.60 0.52 0.49 0.48 0.46 0.45 0.46 0.50 0.56 0.63 0.65 0.70 0.69 0.63 0.62 0.64 0.74 0.96 1.08 1.12 0.96 0.86 0.81 0.83 0.96 1.16 1.27 1.32 1.23 1.34 1.58 1.81 1.96 1.77 1.62 1.55 1.42
0.70 0.58 0.54 0.49 0.47 0.44 0.43 0.46 0.47 0.53 0.61 0.71 0.74 0.75 0.76 0.75 0.74 0.77 0.96 1.15 1.15 1.01 0.92 0.84 0.85 0.94 0.96 0.99 1.20 1.38 1.42 1.59 1.71 1.65 1.38 1.40 1.50 1.37
0.59 0.57 0.55 0.53 0.51 0.48 0.49 0.52 0.52 0.51 0.63 0.78 0.85 0.86 0.86 0.83 0.85 0.91 1.00 1.08 1.05 0.93 0.81 0.75 0.88 1.22 1.26 0.93 0.79 1.11 1.49 1.57 1.45 1.37 1.20 1.22 1.45 1.38
0.49 0.52 0.53 0.52 0.54 0.57 0.60 0.63 0.63 0.63 0.70 0.79 0.84 0.88 0.95 1.01 0.99 0.98 1.02 1.06 1.02 0.83 0.67 0.57 0.69 1.12 1.56 1.39 1.11 1.03 1.15 1.37 1.44 1.45 1.23 1.10 1.19 1.19
0.49 0.49 0.49 0.51 0.57 0.63 0.66 0.69 0.74 0.79 0.83 0.94 0.95 0.96 1.02 1.12 1.06 0.97 0.96 0.92 0.86 0.77 0.67 0.53 0.52 0.75 1.10 1.25 1.10 0.89 0.98 1.10 1.28 1.62 1.55 1.38 1.17 1.01
0.50 0.50 0.50 0.52 0.59 0.65 0.69 0.73 0.79 0.81 0.87 0.96 0.99 1.02 1.07 1.15 1.12 0.96 0.87 0.85 0.78 0.72 0.67 0.55 0.50 0.61 0.84 1.11 0.98 0.75 0.77 0.81 0.84 0.92 1.17 1.52 1.88 1.93
0.54 0.54 0.54 0.58 0.63 0.68 0.72 0.74 0.79 0.81 0.88 0.99 1.05 1.04 1.04 1.01 0.90 0.87 0.84 0.84 0.85 0.79 0.74 0.69 0.61 0.63 0.70 0.79 0.84 0.73 0.65 0.64 0.63 0.70 0.90 0.97 1.11 1.37

GEFSNE_prec_meanprecacc_222.txt.gz
Total_Precipitation_Accumulation
1.40 1.34 1.26 1.16 1.10 1.13 1.22 1.38 1.60 1.54 1.22 0.98 0.94 0.92 0.94 0.94 1.01 0.93 0.83 1.01 1.08 1.09 1.11 1.15 1.12 1.11 1.21 1.35 1.52 1.76 1.97 2.01 1.98 2.03 2.10 2.13 2.20 2.37
1.35 1.31 1.25 1.17 1.14 1.15 1.20 1.28 1.40 1.52 1.37 1.02 0.88 0.82 0.85 0.87 0.96 0.86 0.81 0.99 1.00 1.00 0.99 0.98 0.99 1.03 1.10 1.22 1.31 1.46 1.71 1.86 1.85 1.85 1.93 2.01 2.10 2.22
1.29 1.27 1.23 1.17 1.16 1.13 1.15 1.20 1.25 1.32 1.31 1.02 0.85 0.81 0.83 0.84 0.87 0.84 0.80 0.77 0.76 0.86 0.86 0.86 0.86 0.92 1.02 1.11 1.18 1.27 1.44 1.59 1.73 1.80 1.89 1.99 2.04 2.06
1.19 1.21 1.22 1.23 1.26 1.26 1.25 1.23 1.20 1.19 1.20 1.09 0.89 0.79 0.74 0.70 0.70 0.73 0.75 0.74 0.69 0.81 0.82 0.80 0.83 0.89 0.97 1.01 1.04 1.11 1.21 1.30 1.43 1.55 1.63 1.75 1.87 1.97
1.05 1.11 1.15 1.20 1.27 1.28 1.27 1.23 1.17 1.13 1.12 1.11 0.97 0.81 0.75 0.70 0.70 0.71 0.71 0.71 0.67 0.74 0.78 0.77 0.80 0.84 0.89 0.97 1.01 1.01 1.03 1.10 1.17 1.29 1.39 1.47 1.57 1.71
1.00 1.03 1.05 1.07 1.07 1.07 1.07 1.06 1.07 1.09 1.09 1.10 1.04 0.91 0.80 0.74 0.77 0.82 0.80 0.70 0.67 0.62 0.67 0.67 0.70 0.71 0.74 0.80 0.87 0.90 0.92 0.99 1.09 1.19 1.33 1.39 1.42 1.54
1.04 1.03 0.98 0.97 0.93 0.92 0.91 0.91 0.92 0.99 1.08 1.12 1.06 0.94 0.82 0.77 0.76 0.73 0.78 0.76 0.70 0.63 0.61 0.59 0.59 0.57 0.58 0.65 0.76 0.88 0.98 1.10 1.24 1.33 1.45 1.56 1.63 1.70
0.93 0.89 0.87 0.88 0.86 0.89 0.89 0.89 0.94 1.05 1.15 1.14 1.02 0.85 0.68 0.62 0.67 0.78 0.89 0.94 0.85 0.62 0.61 0.64 0.64 0.65 0.60 0.63 0.79 0.90 1.03 1.16 1.32 1.40 1.46 1.53 1.61 1.72
0.84 0.78 0.74 0.70 0.71 0.67 0.75 0.82 0.85 0.92 0.97 0.96 0.90 0.73 0.66 0.65 0.82 0.99 0.98 0.93 0.76 0.58 0.63 0.70 0.67 0.70 0.67 0.73 0.87 0.90 1.03 1.16 1.31 1.39 1.46 1.50 1.54 1.65
0.70 0.66 0.61 0.60 0.61 0.64 0.72 0.78 0.70 0.65 0.66 0.64 0.66 0.70 0.71 0.71 0.81 0.97 0.98 0.95 0.80 0.68 0.67 0.77 0.68 0.69 0.68 0.73 0.86 0.85 0.91 1.05 1.21 1.35 1.46 1.49 1.52 1.60
0.60 0.62 0.64 0.59 0.66 0.80 0.82 0.80 0.67 0.55 0.58 0.65 0.70 0.70 0.74 0.74 0.76 0.97 1.13 1.20 1.02 0.75 0.65 0.68 0.61 0.63 0.69 0.74 0.82 0.90 0.90 0.99 1.13 1.26 1.33 1.43 1.53 1.59
0.55 0.59 0.67 0.65 0.74 0.85 0.77 0.74 0.67 0.57 0.56 0.55 0.54 0.54 0.53 0.58 0.69 0.82 1.19 1.52 1.24 0.90 0.60 0.72 0.74 0.81 1.01 0.76 0.76 0.83 0.87 0.99 1.10 1.16 1.20 1.29 1.40 1.41
0.54 0.53 0.56 0.74 0.83 0.82 0.74 0.63 0.66 0.71 0.61 0.52 0.50 0.49 0.48 0.49 0.52 0.57 0.81 1.41 1.65 1.15 0.61 1.05 1.22 0.94 1.11 0.87 0.73 0.82 0.95 1.11 1.19 1.21 1.22 1.25 1.30 1.38
0.51 0.46 0.53 0.72 0.72 0.67 0.61 0.65 0.77 0.73 0.60 0.59 0.57 0.56 0.52 0.48 0.48 0.50 0.57 0.75 1.06 1.15 0.83 1.24 1.71 1.30 1.37 1.14 0.88 0.90 0.98 1.21 1.48 1.53 1.47 1.46 1.39 1.38
0.57 0.64 0.68 0.64 0.58 0.55 0.58 0.63 0.64 0.60 0.66 0.74 0.68 0.58 0.52 0.51 0.53 0.57 0.58 0.63 0.71 0.75 0.80 0.96 1.36 1.43 1.59 1.56 1.22 1.03 1.15 1.30 1.61 1.89 1.80 1.59 1.39 1.33
0.68 0.71 0.65 0.56 0.51 0.51 0.55 0.56 0.54 0.57 0.69 0.78 0.72 0.61 0.55 0.60 0.65 0.72 0.82 0.83 0.92 0.84 0.80 0.86 1.04 1.39 1.52 1.30 1.36 1.28 1.31 1.67 1.86 2.04 1.92 1.67 1.44 1.29
0.76 0.61 0.53 0.50 0.49 0.47 0.46 0.47 0.51 0.57 0.65 0.67 0.72 0.71 0.65 0.65 0.66 0.77 0.98 1.10 1.14 0.98 0.87 0.82 0.84 0.97 1.18 1.29 1.34 1.25 1.36 1.59 1.82 1.98 1.80 1.65 1.57 1.44
0.71 0.59 0.55 0.50 0.48 0.45 0.44 0.47 0.49 0.54 0.63 0.73 0.77 0.77 0.78 0.78 0.77 0.79 0.98 1.17 1.17 1.03 0.93 0.85 0.86 0.95 0.98 1.01 1.21 1.39 1.43 1.61 1.72 1.67 1.41 1.44 1.53 1.40
0.60 0.58 0.56 0.54 0.52 0.49 0.50 0.52 0.53 0.52 0.65 0.79 0.87 0.88 0.89 0.86 0.87 0.93 1.01 1.10 1.07 0.95 0.82 0.76 0.90 1.24 1.29 0.95 0.80 1.13 1.50 1.59 1.47 1.39 1.23 1.25 1.48 1.40
0.50 0.53 0.54 0.53 0.55 0.58 0.61 0.63 0.64 0.64 0.70 0.80 0.85 0.90 0.97 1.03 1.01 1.00 1.04 1.08 1.03 0.85 0.68 0.58 0.70 1.14 1.59 1.42 1.13 1.04 1.17 1.38 1.47 1.48 1.26 1.12 1.21 1.22
0.49 0.50 0.49 0.52 0.58 0.64 0.66 0.70 0.74 0.79 0.83 0.95 0.96 0.97 1.03 1.14 1.08 0.99 0.98 0.94 0.88 0.79 0.69 0.54 0.53 0.77 1.12 1.28 1.13 0.90 0.99 1.12 1.31 1.65 1.59 1.42 1.21 1.05
0.51 0.52 0.51 0.53 0.60 0.66 0.69 0.73 0.79 0.81 0.87 0.96 1.00 1.03 1.08 1.16 1.13 0.98 0.88 0.87 0.79 0.74 0.69 0.57 0.52 0.62 0.86 1.14 1.01 0.78 0.79 0.83 0.87 0.96 1.22 1.57 1.93 1.98
0.55 0.55 0.55 0.59 0.64 0.69 0.73 0.75 0.80 0.82 0.88 1.00 1.06 1.05 1.05 1.02 0.91 0.89 0.85 0.86 0.87 0.81 0.75 0.70 0.63 0.65 0.72 0.82 0.87 0.76 0.68 0.67 0.66 0.73 0.93 1.00 1.14 1.40

GEFSNE_prec_meanprecacc_228.txt.gz
Total_Precipitation_Accumulation
1.48 1.40 1.31 1.20 1.15 1.17 1.27 1.44 1.68 1.62 1.29 1.04 0.99 0.98 0.99 0.97 1.05 0.97 0.86 1.04 1.10 1.11 1.14 1.17 1.14 1.13 1.22 1.36 1.52 1.77 1.99 2.06 2.01 2.05 2.12 2.14 2.22 2.38
1.39 1.35 1.29 1.21 1.19 1.20 1.26 1.34 1.48 1.60 1.45 1.08 0.93 0.89 0.91 0.91 1.00 0.89 0.84 1.03 1.04 1.04 1.02 1.01 1.02 1.05 1.12 1.24 1.33 1.48 1.73 1.89 1.88 1.87 1.94 2.02 2.12 2.24
1.31 1.30 1.26 1.20 1.20 1.18 1.21 1.26 1.31 1.39 1.38 1.08 0.90 0.87 0.91 0.90 0.94 0.90 0.85 0.82 0.81 0.91 0.90 0.89 0.89 0.94 1.04 1.13 1.20 1.28 1.46 1.61 1.74 1.81 1.90 2.00 2.05 2.07
1.22 1.25 1.25 1.26 1.30 1.31 1.31 1.30 1.27 1.25 1.25 1.14 0.93 0.84 0.80 0.76 0.76 0.80 0.82 0.81 0.75 0.86 0.86 0.83 0.86 0.90 0.98 1.01 1.05 1.12 1.22 1.31 1.44 1.56 1.64 1.76 1.88 1.98
1.09 1.16 1.19 1.24 1.32 1.33 1.32 1.27 1.22 1.17 1.15 1.15 1.00 0.87 0.83 0.78 0.76 0.76 0.77 0.77 0.72 0.79 0.83 0.81 0.83 0.85 0.89 0.97 1.02 1.01 1.04 1.10 1.18 1.29 1.40 1.48 1.58 1.72
1.04 1.07 1.09 1.11 1.12 1.11 1.11 1.09 1.10 1.11 1.12 1.13 1.07 0.95 0.89 0.84 0.85 0.89 0.85 0.75 0.72 0.67 0.71 0.71 0.73 0.74 0.75 0.81 0.88 0.91 0.92 0.99 1.09 1.19 1.33 1.40 1.43 1.55
1.09 1.06 1.01 1.00 0.95 0.94 0.93 0.93 0.94 1.02 1.11 1.16 1.10 0.99 0.87 0.84 0.83 0.80 0.84 0.81 0.76 0.67 0.64 0.61 0.61 0.59 0.61 0.68 0.78 0.89 0.98 1.10 1.24 1.34 1.46 1.57 1.64 1.71
0.97 0.93 0.90 0.90 0.87 0.90 0.91 0.90 0.96 1.07 1.18 1.17 1.05 0.88 0.71 0.66 0.72 0.82 0.94 0.99 0.90 0.66 0.64 0.67 0.66 0.66 0.61 0.64 0.80 0.92 1.04 1.17 1.32 1.40 1.47 1.53 1.62 1.73
0.88 0.81 0.76 0.71 0.73 0.69 0.76 0.84 0.86 0.93 0.99 0.98 0.91 0.75 0.68 0.67 0.84 1.02 1.01 0.98 0.80 0.60 0.66 0.73 0.69 0.72 0.68 0.73 0.88 0.91 1.04 1.17 1.32 1.40 1.48 1.52 1.56 1.66
0.74 0.69 0.63 0.62 0.62 0.66 0.73 0.79 0.70 0.66 0.67 0.65 0.67 0.71 0.72 0.72 0.83 1.00 1.02 0.99 0.84 0.71 0.70 0.79 0.69 0.70 0.68 0.73 0.87 0.86 0.91 1.05 1.22 1.36 1.48 1.51 1.54 1.61
0.63 0.64 0.66 0.60 0.67 0.81 0.83 0.81 0.68 0.56 0.59 0.66 0.71 0.72 0.76 0.76 0.78 0.99 1.16 1.23 1.06 0.78 0.67 0.70 0.63 0.64 0.70 0.75 0.83 0.91 0.91 0.99 1.14 1.26 1.34 1.44 1.54 1.60
0.57 0.61 0.69 0.67 0.75 0.86 0.78 0.75 0.68 0.58 0.56 0.56 0.55 0.55 0.55 0.59 0.71 0.84 1.22 1.55 1.28 0.93 0.62 0.74 0.76 0.82 1.02 0.77 0.76 0.83 0.88 0.99 1.11 1.17 1.20 1.30 1.41 1.42
0.55 0.54 0.57 0.75 0.84 0.83 0.75 0.63 0.67 0.72 0.62 0.53 0.51 0.50 0.49 0.50 0.54 0.59 0.83 1.44 1.68 1.18 0.63 1.07 1.24 0.96 1.13 0.88 0.74 0.82 0.95 1.11 1.20 1.21 1.22 1.25 1.31 1.40
0.51 0.47 0.53 0.73 0.73 0.68 0.62 0.66 0.78 0.75 0.62 0.60 0.58 0.56 0.53 0.49 0.49 0.52 0.59 0.77 1.09 1.18 0.85 1.27 1.74 1.32 1.40 1.16 0.89 0.90 0.98 1.21 1.48 1.54 1.48 1.47 1.40 1.39
0.58 0.65 0.68 0.65 0.58 0.55 0.59 0.64 0.65 0.61 0.67 0.76 0.70 0.59 0.54 0.53 0.54 0.58 0.60 0.65 0.73 0.77 0.82 0.98 1.38 1.45 1.62 1.58 1.23 1.04 1.16 1.30 1.62 1.90 1.80 1.59 1.40 1.34
0.69 0.72 0.66 0.57 0.52 0.52 0.56 0.57 0.55 0.58 0.70 0.79 0.74 0.62 0.57 0.60 0.65 0.73 0.82 0.84 0.93 0.85 0.81 0.87 1.05 1.40 1.54 1.31 1.38 1.29 1.32 1.68 1.87 2.05 1.93 1.68 1.45 1.30
0.76 0.62 0.54 0.51 0.50 0.48 0.47 0.48 0.52 0.59 0.66 0.68 0.73 0.72 0.66 0.66 0.67 0.78 0.99 1.11 1.15 0.99 0.89 0.83 0.85 0.99 1.19 1.30 1.35 1.26 1.36 1.60 1.83 1.99 1.81 1.66 1.58 1.45
0.72 0.60 0.56 0.51 0.49 0.46 0.45 0.48 0.50 0.56 0.64 0.74 0.78 0.78 0.79 0.79 0.78 0.80 0.99 1.18 1.19 1.04 0.95 0.86 0.88 0.97 1.00 1.02 1.22 1.40 1.44 1.61 1.72 1.67 1.41 1.44 1.54 1.41
0.62 0.59 0.57 0.54 0.52 0.50 0.51 0.53 0.54 0.53 0.65 0.80 0.88 0.89 0.90 0.87 0.89 0.95 1.03 1.11 1.08 0.96 0.84 0.77 0.91 1.26 1.31 0.96 0.81 1.13 1.50 1.59 1.47 1.39 1.23 1.25 1.49 1.41
0.51 0.54 0.54 0.54 0.56 0.59 0.61 0.64 0.65 0.65 0.71 0.81 0.86 0.90 0.98 1.04 1.02 1.01 1.05 1.10 1.05 0.87 0.69 0.59 0.71 1.16 1.62 1.44 1.14 1.04 1.17 1.39 1.47 1.49 1.27 1.13 1.22 1.23
0.51 0.51 0.50 0.53 0.59 0.64 0.67 0.71 0.75 0.80 0.84 0.96 0.97 0.98 1.04 1.15 1.09 1.00 1.00 0.95 0.89 0.81 0.71 0.55 0.54 0.78 1.14 1.29 1.15 0.91 1.00 1.13 1.32 1.67 1.61 1.44 1.23 1.06
0.53 0.53 0.53 0.54 0.61 0.67 0.70 0.74 0.80 0.82 0.88 0.97 1.02 1.04 1.09 1.17 1.15 0.99 0.89 0.88 0.81 0.75 0.70 0.57 0.52 0.63 0.87 1.16 1.02 0.79 0.79 0.84 0.88 0.97 1.23 1.59 1.96 2.02
0.57 0.57 0.57 0.60 0.65 0.70 0.74 0.76 0.81 0.84 0.90 1.02 1.07 1.06 1.07 1.04 0.93 0.90 0.87 0.87 0.88 0.82 0.76 0.71 0.64 0.66 0.73 0.83 0.88 0.77 0.69 0.67 0.67 0.75 0.95 1.02 1.16 1.42

GEFSNE_prec_meanprecacc_234.txt.gz
Total_Precipitation_Accumulation
1.50 1.43 1.36 1.25 1.18 1.21 1.30 1.48 1.73 1.67 1.33 1.05 1.01 0.99 1.00 0.98 1.07 0.99 0.89 1.08 1.14 1.14 1.16 1.19 1.16 1.14 1.24 1.38 1.54 1.79 2.00 2.07 2.03 2.06 2.14 2.16 2.23 2.39
1.41 1.38 1.32 1.25 1.22 1.24 1.29 1.36 1.50 1.64 1.50 1.12 0.95 0.91 0.93 0.93 1.04 0.93 0.87 1.06 1.07 1.07 1.05 1.03 1.04 1.07 1.13 1.25 1.34 1.49 1.73 1.90 1.89 1.88 1.95 2.03 2.13 2.25
1.33 1.31 1.27 1.22 1.22 1.21 1.24 1.29 1.34 1.42 1.42 1.11 0.93 0.90 0.95 0.94 0.98 0.93 0.87 0.84 0.83 0.94 0.93 0.92 0.92 0.97 1.06 1.15 1.21 1.29 1.47 1.62 1.75 1.82 1.91 2.01 2.06 2.07
1.23 1.27 1.26 1.27 1.32 1.33 1.34 1.33 1.30 1.27 1.28 1.17 0.97 0.87 0.84 0.79 0.78 0.81 0.83 0.82 0.77 0.89 0.89 0.87 0.90 0.94 1.02 1.05 1.08 1.14 1.23 1.32 1.45 1.57 1.65 1.76 1.89 1.99
1.11 1.17 1.21 1.26 1.34 1.36 1.34 1.30 1.24 1.19 1.18 1.17 1.03 0.90 0.86 0.81 0.79 0.78 0.78 0.78 0.75 0.83 0.87 0.86 0.87 0.89 0.93 1.01 1.05 1.04 1.06 1.12 1.19 1.30 1.41 1.49 1.58 1.73
1.07 1.10 1.12 1.13 1.14 1.14 1.14 1.12 1.12 1.13 1.13 1.15 1.09 0.97 0.90 0.86 0.88 0.91 0.87 0.78 0.74 0.69 0.75 0.76 0.78 0.79 0.80 0.85 0.91 0.93 0.94 1.01 1.10 1.20 1.34 1.40 1.43 1.55
1.13 1.11 1.05 1.03 0.98 0.96 0.96 0.95 0.96 1.04 1.13 1.17 1.12 1.00 0.89 0.87 0.86 0.82 0.86 0.84 0.79 0.70 0.68 0.65 0.64 0.63 0.65 0.72 0.81 0.92 1.00 1.12 1.25 1.35 1.46 1.58 1.65 1.71
1.01 0.96 0.93 0.93 0.90 0.93 0.93 0.92 0.97 1.09 1.20 1.19 1.06 0.90 0.73 0.69 0.76 0.86 0.96 1.01 0.93 0.69 0.67 0.71 0.69 0.69 0.64 0.67 0.83 0.95 1.07 1.19 1.34 1.42 1.48 1.55 1.63 1.74
0.90 0.83 0.79 0.74 0.76 0.71 0.79 0.86 0.88 0.95 1.01 0.99 0.92 0.76 0.69 0.69 0.88 1.06 1.04 1.00 0.82 0.63 0.69 0.78 0.73 0.75 0.70 0.76 0.91 0.95 1.06 1.19 1.33 1.42 1.49 1.53 1.58 1.68
0.78 0.72 0.66 0.64 0.64 0.68 0.75 0.82 0.73 0.68 0.70 0.67 0.68 0.72 0.73 0.74 0.86 1.03 1.05 1.02 0.87 0.74 0.73 0.83 0.73 0.74 0.71 0.76 0.90 0.89 0.94 1.07 1.23 1.38 1.49 1.52 1.55 1.63
0.67 0.68 0.69 0.63 0.70 0.83 0.85 0.83 0.70 0.58 0.61 0.69 0.74 0.74 0.78 0.77 0.81 1.03 1.19 1.26 1.09 0.81 0.70 0.73 0.66 0.67 0.73 0.78 0.85 0.93 0.93 1.01 1.15 1.28 1.35 1.45 1.55 1.61
0.60 0.63 0.71 0.69 0.77 0.88 0.80 0.77 0.70 0.60 0.58 0.57 0.56 0.56 0.55 0.60 0.72 0.86 1.24 1.58 1.30 0.96 0.64 0.76 0.79 0.85 1.06 0.80 0.78 0.85 0.89 1.01 1.13 1.19 1.22 1.32 1.42 1.43
0.57 0.55 0.58 0.76 0.85 0.84 0.76 0.65 0.69 0.73 0.64 0.54 0.52 0.51 0.50 0.51 0.54 0.59 0.84 1.46 1.70 1.20 0.65 1.09 1.27 0.98 1.16 0.91 0.76 0.84 0.97 1.13 1.21 1.23 1.24 1.27 1.32 1.41
0.52 0.47 0.54 0.74 0.74 0.69 0.63 0.67 0.79 0.76 0.63 0.61 0.59 0.57 0.54 0.50 0.50 0.52 0.60 0.79 1.10 1.20 0.87 1.28 1.76 1.35 1.43 1.19 0.92 0.93 1.01 1.23 1.50 1.56 1.50 1.49 1.42 1.41
0.58 0.65 0.69 0.66 0.59 0.56 0.59 0.65 0.65 0.61 0.68 0.76 0.71 0.60 0.55 0.54 0.55 0.59 0.61 0.66 0.75 0.79 0.84 1.00 1.40 1.47 1.65 1.61 1.26 1.06 1.18 1.32 1.63 1.91 1.81 1.61 1.42 1.35
0.70 0.73 0.67 0.58 0.53 0.53 0.57 0.57 0.55 0.58 0.70 0.80 0.74 0.62 0.57 0.62 0.67 0.74 0.83 0.85 0.95 0.87 0.83 0.89 1.07 1.42 1.57 1.34 1.40 1.31 1.34 1.69 1.88 2.07 1.95 1.69 1.47 1.32
0.77 0.63 0.55 0.52 0.51 0.49 0.48 0.49 0.53 0.59 0.67 0.69 0.74 0.73 0.67 0.67 0.69 0.79 1.00 1.12 1.16 1.01 0.90 0.85 0.87 1.00 1.21 1.31 1.37 1.28 1.38 1.62 1.85 2.01 1.83 1.68 1.59 1.46
0.73 0.61 0.57 0.52 0.50 0.47 0.46 0.49 0.51 0.56 0.64 0.75 0.79 0.79 0.80 0.80 0.80 0.82 1.01 1.20 1.20 1.06 0.96 0.87 0.89 0.99 1.02 1.04 1.23 1.41 1.46 1.63 1.74 1.69 1.43 1.46 1.55 1.41
0.64 0.61 0.58 0.55 0.53 0.51 0.52 0.54 0.55 0.54 0.66 0.81 0.89 0.90 0.92 0.89 0.91 0.96 1.05 1.13 1.10 0.98 0.85 0.78 0.92 1.28 1.33 0.98 0.82 1.14 1.51 1.60 1.49 1.40 1.24 1.27 1.50 1.41
0.53 0.56 0.56 0.56 0.57 0.60 0.62 0.65 0.66 0.66 0.72 0.82 0.88 0.92 0.99 1.05 1.04 1.03 1.07 1.12 1.08 0.89 0.72 0.61 0.73 1.18 1.65 1.46 1.16 1.05 1.18 1.40 1.49 1.50 1.28 1.13 1.23 1.23
0.52 0.52 0.52 0.55 0.61 0.66 0.69 0.73 0.77 0.82 0.86 0.98 0.98 1.00 1.06 1.17 1.11 1.02 1.01 0.97 0.92 0.83 0.73 0.58 0.56 0.80 1.16 1.32 1.17 0.93 1.01 1.14 1.33 1.67 1.62 1.45 1.24 1.07
0.54 0.54 0.54 0.55 0.62 0.68 0.71 0.76 0.82 0.84 0.90 0.99 1.03 1.06 1.11 1.20 1.17 1.01 0.91 0.90 0.83 0.77 0.72 0.59 0.53 0.65 0.89 1.19 1.05 0.80 0.80 0.84 0.89 0.98 1.24 1.60 1.98 2.04
0.58 0.58 0.58 0.62 0.67 0.72 0.76 0.77 0.83 0.85 0.91 1.03 1.08 1.07 1.08 1.06 0.95 0.92 0.89 0.89 0.90 0.84 0.78 0.73 0.65 0.67 0.75 0.84 0.90 0.78 0.69 0.68 0.68 0.76 0.95 1.02 1.16 1.42